To NAV CANADA Home Page Login to a new session Search on AWWS site Disclaimer Vers la page française équivalente Tips FAQ What's new on the site To the Forecasts and Observations / NOTAM section To "File a Flight Plan" website Publications and other links Update of the User's profile FIC Telephone Numbers My Weather Data Folder Route Weather Data Regional Weather Data Local Weather Data To the Forecasts and Observations / NOTAM section
Request Generated 04/25/2019 at 08:26:29 UTC . Weather information available at that time is displayed.

METAR/TAF

BERENS RIVER/MB    (show WxCam)

LWIS CYBV 250800Z AUTO 29004KT M00/M02 A2972=
LWIS CYBV 250700Z AUTO 27005KT M00/M02 A2972=
LWIS CYBV 250600Z AUTO 28004KT M00/M02 A2971=

CYBV - No TAF is issued for this station

Your time UTC time
Weather data provided by Environment Canada and NAV CANADA